Location: Boitzum
(52.1496°N, 9.6943°E)
Time: 22:56:03
(UTC+00:00)

Cosmos 2344 - Pass Details

Date: 13 January 2026
Orbit: 1196 x 3047 km, 63.3° (Epoch: 7 February)

Event Time Altitude Azimuth Distance (km) Brightness Sun altitude
Exits shadow 06:30:19 - 310° (NW) 3,333 5.2 -8.1°
Reaches altitude 10° 06:30:46 10° 311° (NW) 3,180 5.1 -8.0°
Maximum altitude 06:37:58 50° 27° (NNE) 1,687 4.3 -7.0°
Drops below altitude 10° 06:46:57 10° 102° (ESE) 3,950 7.7 -5.8°
Sets 06:50:41 0° 107° (ESE) 5,194 8.9 -5.3°
